N8JPC Weather Reports


Display with metric or nautical units.
time (UTC)temp
F
wind
direction
speed
MPH
gust
MPH
rain 1hr
in
rain 24hr
in
rain mn
in
humidity
%
barometer
mb
20190721133011 82 155 0.0 0.0 0.00 0.00 0.00 93 1014.1
20190721132510 81 182 0.0 0.0 0.00 0.00 0.00 95 1014.0
20190721132012 81 182 0.0 0.0 0.00 0.00 0.00 95 1014.1
20190721131511 80 171 0.0 0.0 0.00 0.00 0.00 97 1014.1
20190721131010 80 327 0.0 0.0 0.00 0.00 0.00 98 1014.2
20190721130510 79 63 0.0 0.0 0.00 0.00 0.00 99 1014.2
20190721130011 78 38 0.0 0.0 0.00 0.00 0.00 100 1014.2
20190721125511 78 242 0.0 0.0 0.00 0.00 0.00 100 1014.0
20190721125010 78 99 0.0 0.0 0.00 0.00 0.00 100 1014.2
20190721124511 77 100 0.0 0.0 0.00 0.00 0.00 100 1014.2
20190721124011 77 100 0.0 0.0 0.00 0.00 0.00 100 1014.1
20190721123510 77 100 0.0 0.0 0.00 0.00 0.00 100 1014.2
20190721123010 76 100 0.0 0.0 0.00 0.00 0.00 100 1014.2
20190721122511 76 100 0.0 0.0 0.00 0.01 0.00 100 1014.2
20190721122010 76 99 0.0 0.0 0.00 0.01 0.00 100 1014.1
20190721121511 76 99 0.0 0.0 0.00 0.01 0.00 100 1014.1
20190721121011 76 29 0.0 0.0 0.00 0.01 0.00 100 1014.0
20190721120510 76 161 0.0 0.0 0.00 0.01 0.00 100 1014.0
20190721120011 76 161 0.0 0.0 0.00 0.01 0.00 100 1013.9
20190721115511 75 161 0.0 0.0 0.00 0.01 0.00 100 1013.9
20190721115011 75 161 0.0 0.0 0.00 0.01 0.00 100 1013.8
20190721114510 75 161 0.0 0.0 0.00 0.01 0.00 100 1013.9
20190721114011 74 161 0.0 0.0 0.00 0.01 0.00 100 1013.9
20190721113510 74 17 0.0 0.0 0.00 0.01 0.00 100 1013.8
20190721113012 74 17 0.0 0.0 0.00 0.01 0.00 100 1013.8
20190721112511 74 17 0.0 0.0 0.00 0.01 0.00 100 1013.9
20190721112011 74 17 0.0 0.0 0.00 0.01 0.00 100 1013.9
20190721111511 73 17 0.0 0.0 0.00 0.01 0.00 100 1013.9
20190721111011 73 17 0.0 0.0 0.00 0.01 0.00 100 1013.9
20190721110510 73 90 0.0 0.0 0.00 0.01 0.00 100 1013.9
20190721110011 73 90 0.0 0.0 0.00 0.01 0.00 100 1013.9
20190721105511 73 90 0.0 0.0 0.00 0.01 0.00 100 1013.9
20190721105010 73 90 0.0 0.0 0.00 0.01 0.00 100 1013.9
20190721104511 73 90 0.0 0.0 0.00 0.01 0.00 100 1014.0
20190721104010 73 16 0.0 0.0 0.00 0.01 0.00 100 1013.9
20190721103511 73 355 0.0 0.0 0.00 0.01 0.00 100 1013.9
20190721103011 73 355 0.0 0.0 0.00 0.01 0.00 100 1013.8
20190721102510 73 355 0.0 0.0 0.00 0.01 0.00 100 1013.8
20190721102010 73 355 0.0 0.0 0.00 0.01 0.00 100 1013.7
20190721101511 73 355 0.0 0.0 0.00 0.01 0.00 100 1013.7
20190721101011 73 355 0.0 0.0 0.00 0.01 0.00 100 1013.6
20190721100511 73 355 0.0 0.0 0.00 0.01 0.00 100 1013.5
20190721100010 73 355 0.0 0.0 0.00 0.01 0.00 100 1013.5
20190721095510 73 355 0.0 0.0 0.00 0.01 0.00 100 1013.4
20190721095011 72 355 0.0 0.0 0.00 0.01 0.00 100 1013.4
20190721094510 72 355 0.0 0.0 0.00 0.01 0.00 100 1013.5
20190721094010 72 355 0.0 0.0 0.00 0.01 0.00 100 1013.3
20190721093510 72 355 0.0 0.0 0.00 0.01 0.00 100 1013.3
20190721093011 72 355 0.0 0.0 0.00 0.01 0.00 100 1013.1
20190721092511 72 355 0.0 0.0 0.00 0.01 0.00 100 1013.1
20190721092010 72 355 0.0 0.0 0.00 0.01 0.00 100 1013.1
20190721091516 72 355 0.0 0.0 0.00 0.01 0.00 100 1013.1
20190721091011 72 355 0.0 0.0 0.00 0.01 0.00 100 1013.0
20190721090510 72 355 0.0 0.0 0.00 0.01 0.00 100 1013.0
20190721090011 72 355 0.0 0.0 0.00 0.01 0.00 100 1012.8
20190721085510 72 355 0.0 0.0 0.00 0.01 0.00 100 1012.8
20190721085010 72 355 0.0 0.0 0.00 0.01 0.00 100 1012.8
20190721084511 72 355 0.0 0.0 0.00 0.01 0.00 100 1012.8
20190721084011 72 355 0.0 0.0 0.00 0.01 0.00 100 1012.9
20190721083510 72 355 0.0 0.0 0.00 0.01 0.00 100 1012.8
20190721083011 72 355 0.0 0.0 0.00 0.01 0.00 100 1012.8
20190721082510 72 355 0.0 0.0 0.00 0.01 0.00 100 1012.8
20190721082011 72 355 0.0 0.0 0.00 0.01 0.00 100 1012.6
20190721081510 72 355 0.0 0.0 0.00 0.01 0.00 100 1012.6
20190721081011 72 355 0.0 0.0 0.00 0.01 0.00 100 1012.6
20190721080510 72 355 0.0 0.0 0.00 0.01 0.00 100 1012.6
20190721080010 72 355 0.0 0.0 0.00 0.01 0.00 100 1012.6
20190721075510 72 355 0.0 0.0 0.00 0.01 0.00 100 1012.6
20190721075011 72 355 0.0 0.0 0.00 0.01 0.00 100 1012.5
20190721074511 72 355 0.0 0.0 0.00 0.01 0.00 100 1012.4
20190721074011 73 355 0.0 0.0 0.00 0.01 0.00 100 1012.3
20190721073511 73 355 0.0 0.0 0.00 0.01 0.00 100 1012.5
20190721073010 73 355 0.0 0.0 0.00 0.01 0.00 100 1012.5
20190721072510 73 355 0.0 0.0 0.00 0.01 0.00 100 1012.4
20190721072011 73 355 0.0 0.0 0.00 0.01 0.00 100 1012.5
20190721071510 73 355 0.0 0.0 0.00 0.01 0.00 100 1012.5
20190721071010 73 355 0.0 0.0 0.00 0.01 0.00 100 1012.5
20190721070510 73 355 0.0 0.0 0.00 0.01 0.00 100 1012.7
20190721070010 73 355 0.0 0.0 0.00 0.01 0.00 100 1012.7
20190721065511 73 355 0.0 0.0 0.00 0.01 0.00 100 1012.9
20190721065010 73 355 0.0 0.0 0.00 0.01 0.00 100 1012.8
20190721064512 73 355 0.0 0.0 0.00 0.01 0.00 100 1012.8
20190721064010 73 355 0.0 0.0 0.00 0.01 0.00 100 1012.9
20190721063511 73 355 0.0 0.0 0.00 0.01 0.00 100 1012.9
20190721063011 73 355 0.0 0.0 0.00 0.01 0.00 100 1012.9
20190721062511 73 355 0.0 0.0 0.00 0.01 0.00 100 1013.0
20190721062010 73 355 0.0 0.0 0.00 0.01 0.00 100 1013.1
20190721061511 73 355 0.0 0.0 0.00 0.01 0.00 100 1013.1
20190721061011 73 355 0.0 0.0 0.00 0.01 0.00 100 1013.2
20190721060510 73 355 0.0 0.0 0.00 0.01 0.00 100 1013.2
20190721060010 74 355 0.0 0.0 0.00 0.01 0.00 100 1013.3
20190721055510 74 355 0.0 0.0 0.00 0.01 0.00 100 1013.1
20190721055010 74 355 0.0 0.0 0.00 0.01 0.00 100 1013.1
20190721054511 74 355 0.0 0.0 0.00 0.01 0.00 100 1013.2
20190721054011 74 355 0.0 0.0 0.00 0.01 0.00 100 1013.2
20190721053510 74 355 0.0 0.0 0.00 0.01 0.00 100 1013.1
20190721053011 74 355 0.0 0.0 0.00 0.01 0.00 100 1013.1
20190721052511 74 355 0.0 0.0 0.00 0.01 0.00 100 1013.1
20190721052010 74 355 0.0 0.0 0.00 0.01 0.00 100 1012.9
20190721051511 74 355 0.0 0.0 0.00 0.01 0.00 100 1012.9
20190721051011 74 355 0.0 0.0 0.00 0.01 0.00 100 1013.2
20190721050511 74 355 0.0 0.0 0.00 0.01 0.00 100 1013.0
20190721050010 74 355 0.0 0.0 0.00 0.01 0.00 99 1012.7
20190721045511 74 355 0.0 0.0 0.00 0.01 0.00 99 1012.7
20190721045010 74 355 0.0 0.0 0.00 0.01 0.00 99 1012.7
20190721044510 74 355 0.0 0.0 0.00 0.01 0.00 99 1012.8
20190721044011 74 355 0.0 0.0 0.00 0.01 0.00 99 1012.9
20190721043511 74 355 0.0 0.0 0.00 0.01 0.00 99 1013.1
20190721043010 74 355 0.0 0.0 0.00 0.01 0.00 99 1013.3
20190721042511 74 355 0.0 0.0 0.00 0.01 0.00 99 1013.4
20190721042010 74 355 0.0 0.0 0.00 0.01 0.00 99 1013.3
20190721041511 74 355 0.0 0.0 0.00 0.01 0.00 99 1013.2
20190721041011 74 355 0.0 0.0 0.00 0.01 0.00 99 1013.4
20190721040510 74 355 0.0 0.0 0.00 0.01 0.00 99 1013.3
20190721040011 74 355 0.0 0.0 0.00 0.01 0.00 99 1013.4
20190721035511 74 355 0.0 0.0 0.00 0.01 0.01 99 1013.4
20190721035010 74 355 0.0 0.0 0.00 0.01 0.01 99 1013.4
20190721034510 75 355 0.0 0.0 0.00 0.01 0.01 99 1013.3
20190721034010 75 355 0.0 0.0 0.00 0.01 0.01 99 1013.1
20190721033510 75 355 0.0 0.0 0.00 0.01 0.01 99 1013.1
20190721033010 75 355 0.0 0.0 0.00 0.01 0.01 98 1013.0
20190721032510 75 355 0.0 0.0 0.00 0.01 0.01 98 1013.2
20190721032011 75 355 0.0 0.0 0.00 0.01 0.01 98 1013.1
20190721031510 75 355 0.0 0.0 0.00 0.01 0.01 99 1013.1
20190721031011 75 355 0.0 0.0 0.00 0.01 0.01 98 1013.1
20190721030510 75 355 0.0 0.0 0.00 0.01 0.01 98 1013.1
20190721030010 75 355 0.0 0.0 0.00 0.01 0.01 98 1013.1
20190721025510 75 355 0.0 0.0 0.00 0.01 0.01 98 1013.3
20190721025011 76 355 0.0 0.0 0.00 0.01 0.01 98 1013.5
20190721024510 76 355 0.0 0.0 0.00 0.01 0.01 97 1013.5
20190721024010 76 355 0.0 0.0 0.00 0.01 0.01 98 1013.6
20190721023511 76 355 0.0 0.0 0.00 0.01 0.01 98 1013.7
20190721023011 76 355 0.0 0.0 0.00 0.01 0.01 97 1013.7
20190721022510 76 355 0.0 0.0 0.00 0.01 0.01 97 1013.9
20190721022011 76 355 0.0 0.0 0.00 0.01 0.01 97 1014.1
20190721021510 76 355 0.0 0.0 0.00 0.01 0.01 97 1014.0
20190721021011 77 355 0.0 0.0 0.00 0.01 0.01 97 1013.9
20190721020510 77 355 0.0 0.0 0.00 0.01 0.01 96 1013.9
20190721020010 77 355 0.0 0.0 0.00 0.01 0.01 96 1013.8
20190721015510 77 355 0.0 0.0 0.00 0.01 0.01 96 1013.9
20190721015010 77 355 0.0 0.0 0.00 0.01 0.01 96 1013.9
20190721014511 78 355 0.0 0.0 0.00 0.01 0.01 95 1013.7
20190721014010 78 355 0.0 0.0 0.00 0.01 0.01 95 1013.5
20190721013511 78 355 0.0 0.0 0.00 0.01 0.01 95 1013.3
20190721013010 78 355 0.0 0.0 0.00 0.01 0.01 94 1013.2
20190721012510 79 355 0.0 0.0 0.00 0.01 0.01 94 1013.1
20190721012010 79 355 0.0 0.0 0.00 0.01 0.01 94 1013.0
20190721011511 80 355 0.0 0.0 0.00 0.01 0.01 93 1012.9
20190721011011 80 355 0.0 0.0 0.00 0.01 0.01 92 1012.9
20190721010511 80 355 0.0 0.0 0.00 0.01 0.01 92 1012.9
20190721010011 81 355 0.0 0.0 0.00 0.01 0.01 92 1012.9
20190721005510 81 355 0.0 0.0 0.00 0.01 0.01 91 1013.0
20190721005010 82 355 0.0 0.0 0.00 0.01 0.01 90 1013.1
20190721004511 82 355 0.0 0.0 0.00 0.01 0.01 90 1013.1
20190721004011 82 355 0.0 0.0 0.00 0.01 0.01 90 1013.1
20190721003511 83 355 0.0 0.0 0.00 0.01 0.01 89 1013.1
20190721003010 84 355 0.0 0.0 0.00 0.01 0.01 88 1013.4
20190721002510 84 76 0.0 0.0 0.00 0.01 0.01 88 1013.2
20190721002010 84 171 0.0 0.0 0.00 0.01 0.01 87 1013.2
20190721001511 84 171 0.0 0.0 0.00 0.01 0.01 84 1013.2
20190721001011 85 123 0.0 0.0 0.00 0.01 0.01 85 1013.2
20190721000512 85 146 0.0 0.0 0.00 0.01 0.01 85 1013.3
20190721000010 85 155 0.0 0.0 0.00 0.01 0.01 85 1013.3
20190720235511 85 180 0.0 0.0 0.00 0.01 0.01 85 1013.2
20190720235011 85 178 0.0 0.0 0.00 0.01 0.01 84 1013.2
20190720234510 85 140 0.0 0.0 0.00 0.01 0.01 87 1013.2
20190720234011 85 158 0.0 0.0 0.00 0.01 0.01 86 1013.3
20190720233510 86 150 0.0 0.0 0.00 0.01 0.01 85 1013.4
20190720233011 86 78 0.0 0.0 0.00 0.01 0.01 84 1013.4
20190720232510 86 346 0.0 0.0 0.00 0.01 0.01 85 1013.3
20190720232011 86 346 0.0 0.0 0.00 0.01 0.01 85 1013.2
20190720231511 87 122 0.0 0.0 0.00 0.01 0.01 84 1013.3
20190720231011 87 123 0.0 0.0 0.00 0.01 0.01 83 1013.3
20190720230511 87 122 0.0 0.0 0.00 0.01 0.01 81 1013.3
20190720230011 88 155 3.0 0.0 0.00 0.01 0.01 83 1013.4
20190720225511 88 194 0.0 0.0 0.00 0.01 0.01 80 1013.5
20190720225010 88 138 0.0 0.0 0.00 0.01 0.01 80 1013.7
20190720224511 88 184 1.0 0.0 0.00 0.01 0.01 79 1013.7
20190720224010 89 190 0.0 0.0 0.00 0.01 0.01 80 1013.8
20190720223510 89 188 0.0 0.0 0.00 0.01 0.01 79 1013.7
20190720223011 88 38 0.0 0.0 0.00 0.01 0.01 78 1013.6
20190720222510 89 190 0.0 0.0 0.00 0.01 0.01 77 1013.6
20190720222011 89 348 0.0 0.0 0.00 0.01 0.01 78 1013.6
20190720221510 89 15 1.0 0.0 0.00 0.01 0.01 80 1013.7
20190720221010 89 173 0.0 0.0 0.00 0.01 0.01 79 1013.5
20190720220510 89 190 3.0 0.0 0.00 0.01 0.01 79 1013.4
20190720220010 89 198 3.0 0.0 0.00 0.01 0.01 78 1013.4
20190720215511 90 174 0.0 0.0 0.00 0.01 0.01 76 1013.4
20190720215011 90 163 0.0 0.0 0.00 0.01 0.01 78 1013.3
20190720214510 90 329 0.0 0.0 0.00 0.01 0.01 77 1013.3
20190720214011 89 155 2.0 0.0 0.00 0.01 0.01 77 1013.3
20190720213510 89 192 3.0 0.0 0.00 0.01 0.01 78 1013.2
20190720213011 89 175 7.0 0.0 0.00 0.01 0.01 76 1013.0
20190720212510 89 134 0.0 0.0 0.00 0.01 0.01 78 1013.0
20190720212010 89 50 0.0 0.0 0.00 0.01 0.01 78 1013.0
20190720211511 89 26 0.0 0.0 0.00 0.01 0.01 78 1012.9
20190720211010 89 178 0.0 0.0 0.00 0.01 0.01 78 1012.9
20190720210511 89 169 7.0 0.0 0.00 0.01 0.01 78 1012.8
20190720210010 89 226 1.0 0.0 0.00 0.01 0.01 78 1012.8
20190720205510 89 193 0.0 0.0 0.00 0.01 0.01 78 1012.8
20190720205011 89 186 0.0 0.0 0.00 0.01 0.01 79 1012.8
20190720204511 89 148 0.0 0.0 0.00 0.01 0.01 78 1012.8
20190720204010 89 163 0.0 0.0 0.00 0.01 0.01 79 1012.6
20190720203511 89 203 8.0 0.0 0.00 0.01 0.01 78 1012.6
20190720203010 89 149 1.0 0.0 0.00 0.01 0.01 78 1012.6
20190720202510 89 194 7.0 0.0 0.00 0.01 0.01 77 1012.7
20190720202010 89 171 2.0 0.0 0.00 0.01 0.01 78 1012.6
20190720201510 89 187 0.0 0.0 0.00 0.01 0.01 79 1012.5
20190720201010 89 205 0.0 0.0 0.00 0.01 0.01 77 1012.6
20190720200511 89 178 0.0 0.0 0.00 0.01 0.01 78 1012.5
20190720200011 89 143 0.0 0.0 0.00 0.01 0.01 77 1012.5
20190720195510 89 61 3.0 0.0 0.00 0.01 0.01 76 1012.5
20190720195011 90 310 0.0 0.0 0.00 0.01 0.01 77 1012.4
20190720194510 90 28 0.0 0.0 0.00 0.01 0.01 77 1012.4
20190720194010 89 109 0.0 0.0 0.00 0.01 0.01 78 1012.3
20190720193511 89 360 1.0 0.0 0.00 0.01 0.01 77 1012.6
20190720193011 89 203 3.0 0.0 0.00 0.01 0.01 78 1012.6
20190720192511 89 204 1.0 0.0 0.00 0.01 0.01 80 1012.6
20190720192010 89 59 0.0 0.0 0.00 0.01 0.01 78 1012.7
20190720191511 88 355 0.0 0.0 0.00 0.01 0.01 78 1012.7
20190720191011 88 161 0.0 0.0 0.00 0.01 0.01 81 1012.6
20190720190511 88 205 1.0 0.0 0.00 0.01 0.01 78 1012.4
20190720190010 88 119 1.0 0.0 0.00 0.01 0.01 78 1012.3
20190720185510 88 192 7.0 0.0 0.00 0.01 0.01 80 1012.2
20190720185010 88 183 0.0 0.0 0.00 0.01 0.01 80 1012.3
20190720184511 88 178 7.0 0.0 0.00 0.01 0.01 80 1012.3
20190720184011 88 175 1.0 0.0 0.00 0.01 0.01 79 1012.3
20190720183510 88 169 3.0 0.0 0.00 0.01 0.01 80 1012.3
20190720183011 88 149 0.0 0.0 0.00 0.01 0.01 78 1012.5
20190720182511 88 221 0.0 0.0 0.00 0.01 0.01 79 1012.6
20190720182010 88 249 1.0 0.0 0.00 0.01 0.01 78 1012.6
20190720181510 88 223 0.0 0.0 0.00 0.01 0.01 79 1012.5
20190720181011 88 199 2.0 0.0 0.00 0.01 0.01 78 1012.5
20190720180511 89 195 4.0 0.0 0.00 0.01 0.01 79 1012.5
20190720180010 88 182 0.0 0.0 0.00 0.01 0.01 81 1012.5
20190720175510 88 206 0.0 0.0 0.00 0.01 0.01 79 1012.8
20190720175011 88 130 0.0 0.0 0.00 0.01 0.01 78 1012.7
20190720174511 88 313 0.0 0.0 0.00 0.01 0.01 79 1012.8
20190720174010 88 259 0.0 0.0 0.00 0.01 0.01 80 1012.9
20190720173510 88 190 6.0 0.0 0.00 0.01 0.01 82 1012.8
20190720173011 87 96 0.0 0.0 0.00 0.01 0.01 83 1012.7
20190720172511 87 178 0.0 0.0 0.00 0.01 0.01 82 1012.8
20190720172010 86 138 0.0 0.0 0.00 0.01 0.01 82 1012.9
20190720171511 86 254 2.0 0.0 0.00 0.01 0.01 83 1012.8
20190720171011 86 315 5.0 0.0 0.00 0.01 0.01 84 1012.6
20190720170510 85 173 0.0 0.0 0.00 0.01 0.01 86 1012.9
20190720170010 85 142 0.0 0.0 0.00 0.01 0.01 86 1012.8
20190720165511 85 127 0.0 0.0 0.00 0.01 0.01 84 1012.8
20190720165010 85 134 9.0 0.0 0.00 0.01 0.01 84 1012.8
20190720164511 86 50 0.0 0.0 0.00 0.01 0.01 86 1012.9
20190720164011 86 145 0.0 0.0 0.00 0.01 0.01 86 1012.7
20190720163511 85 129 0.0 0.0 0.00 0.01 0.01 87 1012.9
20190720163011 85 146 0.0 0.0 0.00 0.01 0.01 87 1013.0
20190720162510 85 195 3.0 0.0 0.00 0.01 0.01 86 1013.0
20190720162011 85 173 0.0 0.0 0.00 0.01 0.01 88 1013.1
20190720161510 84 244 0.0 0.0 0.00 0.01 0.01 87 1013.2
20190720161010 84 114 0.0 0.0 0.00 0.01 0.01 88 1013.1
20190720160511 84 79 0.0 0.0 0.00 0.01 0.01 87 1013.2
20190720160010 84 291 0.0 0.0 0.00 0.01 0.01 86 1013.2
20190720155512 84 124 0.0 0.0 0.00 0.01 0.01 87 1013.4
20190720155011 84 110 0.0 0.0 0.00 0.01 0.01 88 1013.5
20190720154510 84 59 0.0 0.0 0.00 0.01 0.01 87 1013.7
20190720154011 84 169 0.0 0.0 0.00 0.01 0.01 88 1013.7
20190720153510 84 89 0.0 0.0 0.00 0.01 0.01 90 1013.7
20190720153011 83 180 0.0 0.0 0.00 0.01 0.01 89 1013.7
20190720152511 83 267 0.0 0.0 0.00 0.01 0.01 89 1013.8
20190720152010 83 72 0.0 0.0 0.00 0.01 0.01 90 1013.8
20190720151511 83 152 3.0 0.0 0.00 0.01 0.01 90 1013.8
20190720151010 83 160 0.0 0.0 0.00 0.01 0.01 91 1013.9
20190720150511 83 116 4.0 0.0 0.00 0.01 0.01 90 1013.9
20190720150010 83 115 2.0 0.0 0.00 0.01 0.01 90 1014.0
20190720145510 82 161 0.0 0.0 0.00 0.01 0.01 92 1014.1
20190720145011 82 310 0.0 0.0 0.00 0.01 0.01 92 1014.1
20190720144510 82 144 6.0 0.0 0.00 0.01 0.01 93 1014.3
20190720144010 82 184 0.0 0.0 0.00 0.01 0.01 93 1014.4
20190720143511 81 125 0.0 0.0 0.00 0.01 0.01 94 1014.7
20190720143011 81 136 0.0 0.0 0.00 0.01 0.01 94 1014.8
20190720142510 81 103 0.0 0.0 0.00 0.01 0.01 95 1015.0
20190720142011 80 109 0.0 0.0 0.00 0.01 0.01 95 1014.9
20190720141511 80 136 0.0 0.0 0.00 0.01 0.01 96 1014.9
20190720141010 80 134 0.0 0.0 0.00 0.01 0.01 95 1014.9
20190720140511 80 143 0.0 0.0 0.00 0.01 0.01 96 1014.8
20190720140010 80 150 0.0 0.0 0.00 0.01 0.01 96 1014.8
20190720135511 80 142 0.0 0.0 0.00 0.01 0.01 97 1015.0
20190720135011 80 178 0.0 0.0 0.00 0.01 0.01 98 1015.2
20190720134511 80 194 0.0 0.0 0.00 0.01 0.01 99 1015.3
20190720134011 79 162 0.0 0.0 0.00 0.01 0.01 98 1015.7
20190720133510 79 125 0.0 0.0 0.00 0.01 0.01 99 1015.8